Miscellaneous Local Product
Issued by NWS Hastings, NE

Home | Current Version | Previous Version | Text Only | Print | Product List | Glossary Off
Versions: 1 2 3 4 5 6 7 8 9 10 11 12 13 14 15 16 17 18 19 20 21 22 23 24 25 26 27 28 29 30 31 32 33 34 35 36 37 38 39 40 41 42 43 44 45 46 47 48 49 50

000
AXUS43 KGID 202002
MISGRI

GID CWA HOURLY WEATHER ROUNDUP
NATIONAL WEATHER SERVICE HASTINGS NE
300 PM CDT FRI OCT 20 2017

NOTE: "FAIR" INDICATES FEW OR NO CLOUDS BELOW 12,000 FEET WITH NO
SIGNIFICANT WEATHER AND/OR OBSTRUCTIONS TO VISIBILITY.

...SOUTH CENTRAL NEBRASKA...

CITY           SKY/WX    TMP DP  RH WIND       PRES   REMARKS
GRAND ISLAND   SUNNY     76  57  51 S31G40    29.64F
HASTINGS       SUNNY     75  55  49 S18G41    29.65F
KEARNEY        CLOUDY    77  56  48 S35G43    29.61F
ORD            SUNNY     74  54  49 S23G40    29.58F
YORK           SUNNY     75  57  53 S18G38    29.69F
AURORA         SUNNY     75  55  49 S29G40    29.66F
LEXINGTON      SUNNY     75  53  46 S28G36    29.59F
HOLDREGE       CLOUDY    75  55  50 S25G35    29.62F
HEBRON         PTSUNNY   77  58  52 S23G33    29.73F

...NEBRASKA PANHANDLE...

CITY           SKY/WX    TMP DP  RH WIND       PRES   REMARKS
CHADRON        SUNNY     83  35  18 S9        29.41F
ALLIANCE       SUNNY     75  40  28 SE14      29.51F
SCOTTSBLUFF    SUNNY     79  37  22 SE8       29.49F
SIDNEY         SUNNY     77  39  25 S10       29.56F

...WESTERN AND NORTH CENTRAL NEBRASKA...

CITY           SKY/WX    TMP DP  RH WIND       PRES   REMARKS
VALENTINE      SUNNY     77  50  38 S22       29.50F
AINSWORTH      CLOUDY    72  54  53 S22G29    29.54F
ONEILL         MOSUNNY   75  56  50 S24G31    29.57F
BROKEN BOW     PTSUNNY   72  54  53 S21G31    29.59F
IMPERIAL       SUNNY     72  51  47 S12       29.57F
NORTH PLATTE   SUNNY     73  53  49 S13G28    29.56F
MCCOOK         MOSUNNY   79  51  37 S20G37    29.56F

...EASTERN NEBRASKA...

CITY           SKY/WX    TMP DP  RH WIND       PRES   REMARKS
NORFOLK        MOSUNNY   76  56  49 S29G37    29.63F
SO SIOUX CITY  MOSUNNY   76  57  51 S17G30    29.70F
TEKAMAH        MOSUNNY   77  56  48 S25G36    29.74F
COLUMBUS       SUNNY     75  57  53 S25G33    29.67F
ALBION         SUNNY     76  56  50 S28G36    29.64F
OMAHA EPPLEY   CLOUDY    76  57  51 S20G31    29.76F
OFFUTT AFB     MOSUNNY   77  58  52 S21G26    29.76F
MILLARD        CLOUDY    76  60  57 S20G35    29.76F
LINCOLN        CLOUDY    76  59  55 S24G36    29.73F
NEBRASKA CITY  PTSUNNY   76  61  59 S21G33    29.79F
BEATRICE       PTSUNNY   77  60  56 S26G35    29.75F
FALLS CITY     PTSUNNY   74  58  57 S25G39    29.82F

...NORTHERN KANSAS...

CITY           SKY/WX    TMP DP  RH WIND       PRES   REMARKS
GOODLAND       MOSUNNY   76  42  29 S23G31    29.58F
HILL CITY      SUNNY     79  54  41 S28G45    29.62F
NORTON         CLEAR     79  43  27 S24G33    29.60F
PHILLIPSBURG   SUNNY     81  52  36 SE24G33   29.64F
SMITH CENTER   SUNNY     75  55  50 S28G35    29.68F HAZE
HAYS           MOSUNNY   78  55  44 S23G37    29.68F
RUSSELL        MOSUNNY   74  60  61 S29G40    29.71F
CONCORDIA      CLOUDY    76  60  57 S28G40    29.74F
SALINA         CLOUDY    78  60  53 S30G46    29.77F
TOPEKA         MOSUNNY   78  60  53 S17G32    29.85F



USA.gov is the U.S. government's official web portal to all federal, state and local government web resources and services.